| time (UTC) | temp F | wind direction | speed MPH | gust MPH | rain 1hr in | rain 24hr in | rain mn in | humidity % | barometer mb |
| 20260508012324 | 53 | 44 | 0.0 | 1.0 | 0.00 | 0.24 | 0.24 | 87 | 1009.2 |
| 20260508011840 | 53 | 44 | 0.0 | 1.0 | 0.00 | 0.24 | 0.24 | 87 | 1009.2 |
| 20260508011357 | 53 | 44 | 0.0 | 0.0 | 0.00 | 0.24 | 0.24 | 87 | 1009.0 |
| 20260508010839 | 53 | 44 | 0.0 | 0.0 | 0.00 | 0.24 | 0.24 | 86 | 1009.0 |
| 20260508010340 | 53 | 44 | 0.0 | 0.0 | 0.00 | 0.24 | 0.24 | 86 | 1009.0 |
| 20260508005835 | 53 | 44 | 0.0 | 0.0 | 0.00 | 0.24 | 0.24 | 86 | 1008.9 |
| 20260508005356 | 54 | 44 | 0.0 | 0.0 | 0.00 | 0.24 | 0.24 | 86 | 1008.8 |
| 20260508004825 | 54 | 44 | 0.0 | 0.0 | 0.00 | 0.24 | 0.24 | 86 | 1008.7 |
| 20260508004338 | 54 | 44 | 0.0 | 0.0 | 0.00 | 0.24 | 0.24 | 86 | 1008.6 |
| 20260508003849 | 54 | 44 | 0.0 | 0.0 | 0.00 | 0.24 | 0.24 | 86 | 1008.4 |
| 20260508003358 | 54 | 44 | 0.0 | 0.0 | 0.00 | 0.24 | 0.24 | 86 | 1008.5 |
| 20260508002835 | 54 | 44 | 0.0 | 0.0 | 0.00 | 0.24 | 0.24 | 86 | 1008.5 |
| 20260508002354 | 54 | 44 | 0.0 | 0.0 | 0.00 | 0.24 | 0.24 | 86 | 1008.4 |
| 20260508001855 | 54 | 44 | 0.0 | 0.0 | 0.00 | 0.24 | 0.24 | 86 | 1008.4 |
| 20260508001359 | 54 | 44 | 0.0 | 0.0 | 0.01 | 0.24 | 0.24 | 85 | 1008.2 |
| 20260508000842 | 54 | 44 | 0.0 | 0.0 | 0.01 | 0.24 | 0.24 | 86 | 1008.1 |
| 20260508000400 | 54 | 44 | 0.0 | 0.0 | 0.01 | 0.24 | 0.24 | 85 | 1008.2 |
| 20260507235845 | 54 | 44 | 0.0 | 0.0 | 0.01 | 0.24 | 0.24 | 85 | 1008.1 |
| 20260507235327 | 54 | 44 | 0.0 | 0.0 | 0.01 | 0.24 | 0.24 | 85 | 1008.1 |
| 20260507234848 | 54 | 44 | 0.0 | 0.0 | 0.01 | 0.24 | 0.24 | 84 | 1007.9 |
| 20260507234345 | 54 | 44 | 0.0 | 0.0 | 0.01 | 0.24 | 0.24 | 84 | 1008.0 |
| 20260507233831 | 55 | 44 | 0.0 | 0.0 | 0.01 | 0.24 | 0.24 | 83 | 1007.8 |
| 20260507233338 | 55 | 44 | 0.0 | 0.0 | 0.01 | 0.24 | 0.24 | 84 | 1007.7 |
| 20260507232845 | 55 | 44 | 0.0 | 0.0 | 0.01 | 0.24 | 0.24 | 84 | 1007.8 |
| 20260507232328 | 55 | 44 | 0.0 | 0.0 | 0.01 | 0.24 | 0.24 | 83 | 1007.8 |
| 20260507231837 | 55 | 44 | 0.0 | 0.0 | 0.01 | 0.24 | 0.24 | 83 | 1007.8 |
| 20260507231343 | 55 | 44 | 0.0 | 0.0 | 0.00 | 0.23 | 0.23 | 83 | 1007.7 |
| 20260507230855 | 55 | 44 | 0.0 | 0.0 | 0.00 | 0.23 | 0.23 | 83 | 1007.8 |
| 20260507230338 | 55 | 44 | 0.0 | 0.0 | 0.00 | 0.23 | 0.23 | 82 | 1007.9 |
| 20260507225855 | 55 | 44 | 0.0 | 1.0 | 0.00 | 0.23 | 0.23 | 82 | 1007.8 |
| 20260507225409 | 55 | 44 | 0.0 | 1.0 | 0.00 | 0.23 | 0.23 | 81 | 1007.8 |
| 20260507224855 | 55 | 44 | 0.0 | 2.0 | 0.00 | 0.23 | 0.23 | 81 | 1007.6 |
| 20260507224336 | 55 | 44 | 0.0 | 1.0 | 0.00 | 0.23 | 0.23 | 81 | 1007.8 |
| 20260507223838 | 55 | 44 | 0.0 | 1.0 | 0.00 | 0.23 | 0.23 | 80 | 1007.7 |
| 20260507223340 | 55 | 44 | 0.0 | 1.0 | 0.00 | 0.23 | 0.23 | 78 | 1007.7 |
| 20260507222910 | 56 | 44 | 0.0 | 1.0 | 0.00 | 0.23 | 0.23 | 79 | 1007.7 |
| 20260507222348 | 56 | 44 | 0.0 | 1.0 | 0.00 | 0.23 | 0.23 | 79 | 1007.8 |
| 20260507221853 | 56 | 44 | 0.0 | 2.0 | 0.00 | 0.23 | 0.23 | 78 | 1007.8 |
| 20260507221331 | 56 | 44 | 0.0 | 1.0 | 0.00 | 0.23 | 0.23 | 81 | 1007.4 |
| 20260507220834 | 56 | 44 | 0.0 | 1.0 | 0.00 | 0.23 | 0.23 | 81 | 1007.3 |
| 20260507220351 | 56 | 44 | 0.0 | 1.0 | 0.00 | 0.23 | 0.23 | 81 | 1007.4 |
| 20260507215830 | 56 | 44 | 0.0 | 1.0 | 0.00 | 0.23 | 0.23 | 82 | 1007.5 |
| 20260507215343 | 55 | 44 | 0.0 | 0.0 | 0.00 | 0.23 | 0.23 | 82 | 1007.6 |
| 20260507214840 | 55 | 44 | 0.0 | 0.0 | 0.00 | 0.23 | 0.23 | 81 | 1008.0 |
| 20260507214413 | 55 | 44 | 0.0 | 1.0 | 0.00 | 0.23 | 0.23 | 80 | 1008.2 |
| 20260507213829 | 56 | 44 | 0.0 | 1.0 | 0.00 | 0.23 | 0.23 | 78 | 1008.3 |
| 20260507213355 | 56 | 44 | 0.0 | 1.0 | 0.00 | 0.23 | 0.23 | 78 | 1008.0 |
| 20260507212832 | 56 | 44 | 0.0 | 2.0 | 0.00 | 0.23 | 0.23 | 78 | 1007.8 |
| 20260507212334 | 56 | 44 | 0.0 | 2.0 | 0.00 | 0.23 | 0.23 | 79 | 1007.9 |
| 20260507211833 | 56 | 5 | 0.0 | 1.0 | 0.00 | 0.23 | 0.23 | 81 | 1008.0 |
| 20260507211355 | 56 | 5 | 0.0 | 1.0 | 0.00 | 0.23 | 0.23 | 81 | 1008.2 |
| 20260507210854 | 56 | 360 | 0.0 | 1.0 | 0.00 | 0.23 | 0.23 | 80 | 1008.2 |
| 20260507210330 | 56 | 5 | 0.0 | 2.0 | 0.00 | 0.23 | 0.23 | 80 | 1008.0 |
| 20260507205848 | 56 | 311 | 0.0 | 2.0 | 0.00 | 0.24 | 0.23 | 80 | 1008.2 |
| 20260507205341 | 56 | 311 | 0.0 | 1.0 | 0.00 | 0.24 | 0.23 | 81 | 1008.2 |
| 20260507204842 | 56 | 311 | 0.0 | 2.0 | 0.00 | 0.24 | 0.23 | 79 | 1008.1 |
| 20260507204356 | 56 | 310 | 0.0 | 2.0 | 0.00 | 0.24 | 0.23 | 79 | 1008.1 |
| 20260507203859 | 57 | 311 | 0.0 | 1.0 | 0.00 | 0.24 | 0.23 | 78 | 1008.0 |
| 20260507203343 | 57 | 310 | 0.0 | 2.0 | 0.00 | 0.24 | 0.23 | 77 | 1007.9 |
| 20260507202840 | 57 | 309 | 1.0 | 3.0 | 0.00 | 0.24 | 0.23 | 78 | 1008.0 |
| 20260507202406 | 57 | 288 | 1.0 | 3.0 | 0.00 | 0.24 | 0.23 | 77 | 1007.7 |
| 20260507201843 | 57 | 130 | 0.0 | 1.0 | 0.00 | 0.24 | 0.23 | 80 | 1007.8 |
| 20260507201339 | 57 | 130 | 0.0 | 1.0 | 0.00 | 0.24 | 0.23 | 79 | 1007.7 |
| 20260507200840 | 56 | 130 | 0.0 | 1.0 | 0.00 | 0.24 | 0.23 | 78 | 1007.8 |
| 20260507200326 | 56 | 130 | 0.0 | 1.0 | 0.00 | 0.24 | 0.23 | 79 | 1008.0 |
| 20260507195831 | 57 | 130 | 0.0 | 1.0 | 0.00 | 0.24 | 0.23 | 77 | 1008.1 |
| 20260507195344 | 57 | 133 | 0.0 | 1.0 | 0.00 | 0.24 | 0.23 | 77 | 1007.9 |
| 20260507194843 | 57 | 134 | 1.0 | 1.0 | 0.00 | 0.24 | 0.23 | 76 | 1007.9 |
| 20260507194403 | 57 | 134 | 0.0 | 1.0 | 0.00 | 0.24 | 0.23 | 78 | 1007.8 |
| 20260507193840 | 57 | 134 | 0.0 | 2.0 | 0.00 | 0.24 | 0.23 | 79 | 1007.6 |
| 20260507193342 | 57 | 133 | 0.0 | 2.0 | 0.00 | 0.24 | 0.23 | 80 | 1007.8 |
| 20260507192832 | 57 | 134 | 0.0 | 3.0 | 0.00 | 0.24 | 0.23 | 79 | 1007.9 |
| 20260507192334 | 57 | 134 | 0.0 | 3.0 | 0.00 | 0.24 | 0.23 | 79 | 1007.9 |
| 20260507191835 | 57 | 117 | 0.0 | 2.0 | 0.00 | 0.24 | 0.23 | 80 | 1007.9 |
| 20260507191339 | 57 | 76 | 0.0 | 2.0 | 0.00 | 0.24 | 0.23 | 81 | 1007.7 |
| 20260507190835 | 56 | 76 | 0.0 | 2.0 | 0.00 | 0.24 | 0.23 | 82 | 1007.8 |
| 20260507190358 | 56 | 76 | 0.0 | 2.0 | 0.00 | 0.24 | 0.23 | 81 | 1008.0 |
| 20260507185829 | 56 | 161 | 0.0 | 1.0 | 0.00 | 0.24 | 0.23 | 82 | 1007.9 |
| 20260507185343 | 56 | 161 | 0.0 | 1.0 | 0.00 | 0.24 | 0.23 | 81 | 1008.1 |
| 20260507184908 | 56 | 161 | 0.0 | 2.0 | 0.00 | 0.24 | 0.23 | 81 | 1008.2 |
| 20260507184327 | 56 | 161 | 0.0 | 2.0 | 0.00 | 0.24 | 0.23 | 79 | 1008.0 |
| 20260507183838 | 56 | 96 | 0.0 | 2.0 | 0.00 | 0.24 | 0.23 | 80 | 1008.1 |
| 20260507183339 | 56 | 119 | 0.0 | 1.0 | 0.00 | 0.24 | 0.23 | 81 | 1008.1 |
| 20260507182840 | 56 | 171 | 0.0 | 1.0 | 0.00 | 0.24 | 0.23 | 81 | 1008.1 |
| 20260507182328 | 56 | 171 | 0.0 | 1.0 | 0.00 | 0.24 | 0.23 | 82 | 1008.1 |
| 20260507181831 | 55 | 171 | 0.0 | 1.0 | 0.00 | 0.24 | 0.23 | 81 | 1008.1 |
| 20260507181327 | 55 | 171 | 0.0 | 4.0 | 0.00 | 0.24 | 0.23 | 81 | 1008.1 |
| 20260507180832 | 55 | 171 | 1.0 | 4.0 | 0.00 | 0.24 | 0.23 | 81 | 1008.2 |
| 20260507180340 | 55 | 56 | 0.0 | 2.0 | 0.00 | 0.24 | 0.23 | 81 | 1008.4 |
| 20260507175842 | 55 | 56 | 0.0 | 1.0 | 0.00 | 0.24 | 0.23 | 81 | 1008.2 |
| 20260507175338 | 55 | 56 | 0.0 | 1.0 | 0.00 | 0.24 | 0.23 | 81 | 1008.4 |
| 20260507174848 | 55 | 55 | 0.0 | 1.0 | 0.00 | 0.24 | 0.23 | 81 | 1008.5 |
| 20260507174335 | 55 | 55 | 0.0 | 1.0 | 0.00 | 0.24 | 0.23 | 80 | 1008.8 |
| 20260507173831 | 55 | 55 | 0.0 | 3.0 | 0.00 | 0.24 | 0.23 | 79 | 1008.9 |
| 20260507173337 | 56 | 32 | 0.0 | 2.0 | 0.00 | 0.24 | 0.23 | 80 | 1008.5 |
| 20260507172841 | 56 | 32 | 1.0 | 2.0 | 0.00 | 0.24 | 0.23 | 79 | 1008.6 |
| 20260507172349 | 56 | 228 | 0.0 | 2.0 | 0.00 | 0.24 | 0.23 | 80 | 1008.4 |
| 20260507171851 | 56 | 74 | 0.0 | 2.0 | 0.00 | 0.24 | 0.23 | 80 | 1008.9 |
| 20260507171354 | 56 | 74 | 0.0 | 2.0 | 0.00 | 0.24 | 0.23 | 80 | 1009.2 |
| 20260507170835 | 56 | 103 | 0.0 | 2.0 | 0.01 | 0.24 | 0.23 | 82 | 1009.5 |
| 20260507170339 | 56 | 95 | 0.0 | 2.0 | 0.01 | 0.24 | 0.23 | 86 | 1009.2 |
| 20260507165839 | 56 | 95 | 0.0 | 0.0 | 0.01 | 0.24 | 0.23 | 85 | 1009.4 |
| 20260507165334 | 56 | 96 | 0.0 | 1.0 | 0.01 | 0.24 | 0.23 | 84 | 1009.2 |
| 20260507164836 | 56 | 96 | 0.0 | 1.0 | 0.01 | 0.24 | 0.23 | 84 | 1009.3 |
| 20260507164407 | 56 | 96 | 0.0 | 1.0 | 0.01 | 0.24 | 0.23 | 84 | 1009.2 |
| 20260507163900 | 56 | 84 | 0.0 | 1.0 | 0.01 | 0.24 | 0.23 | 85 | 1009.0 |
| 20260507163342 | 56 | 84 | 0.0 | 1.0 | 0.01 | 0.24 | 0.23 | 85 | 1009.1 |
| 20260507162831 | 55 | 84 | 0.0 | 1.0 | 0.01 | 0.24 | 0.23 | 84 | 1009.2 |
| 20260507162347 | 55 | 84 | 0.0 | 2.0 | 0.01 | 0.24 | 0.23 | 83 | 1009.3 |
| 20260507161907 | 55 | 84 | 0.0 | 2.0 | 0.01 | 0.24 | 0.23 | 84 | 1009.2 |
| 20260507161347 | 55 | 79 | 0.0 | 1.0 | 0.00 | 0.23 | 0.22 | 84 | 1009.5 |
| 20260507160855 | 55 | 141 | 0.0 | 1.0 | 0.00 | 0.23 | 0.22 | 84 | 1009.5 |
| 20260507160340 | 55 | 141 | 0.0 | 1.0 | 0.00 | 0.23 | 0.22 | 84 | 1009.4 |
| 20260507155849 | 55 | 142 | 0.0 | 1.0 | 0.00 | 0.23 | 0.22 | 83 | 1009.8 |
| 20260507155349 | 55 | 142 | 0.0 | 2.0 | 0.00 | 0.23 | 0.22 | 82 | 1009.2 |
| 20260507154856 | 55 | 142 | 0.0 | 3.0 | 0.00 | 0.23 | 0.22 | 82 | 1009.0 |
| 20260507154355 | 55 | 153 | 0.0 | 3.0 | 0.00 | 0.23 | 0.22 | 83 | 1008.9 |
| 20260507153852 | 55 | 64 | 0.0 | 2.0 | 0.00 | 0.23 | 0.22 | 83 | 1009.3 |
| 20260507153347 | 55 | 157 | 0.0 | 2.0 | 0.00 | 0.23 | 0.22 | 83 | 1009.2 |
| 20260507152845 | 55 | 153 | 0.0 | 2.0 | 0.00 | 0.23 | 0.22 | 82 | 1009.4 |
| 20260507152346 | 55 | 209 | 0.0 | 3.0 | 0.00 | 0.23 | 0.22 | 81 | 1009.4 |
| 20260507151852 | 55 | 76 | 0.0 | 4.0 | 0.00 | 0.23 | 0.22 | 81 | 1009.5 |
| 20260507151406 | 56 | 160 | 0.0 | 4.0 | 0.00 | 0.23 | 0.22 | 81 | 1009.1 |
| 20260507150840 | 56 | 82 | 1.0 | 4.0 | 0.00 | 0.23 | 0.22 | 81 | 1009.1 |
| 20260507150359 | 56 | 45 | 1.0 | 3.0 | 0.00 | 0.23 | 0.22 | 82 | 1008.9 |
| 20260507145831 | 56 | 138 | 1.0 | 3.0 | 0.00 | 0.23 | 0.22 | 83 | 1009.1 |
| 20260507145340 | 56 | 168 | 1.0 | 4.0 | 0.00 | 0.23 | 0.22 | 83 | 1009.1 |
| 20260507144831 | 56 | 360 | 1.0 | 3.0 | 0.01 | 0.23 | 0.22 | 83 | 1009.1 |
| 20260507144340 | 56 | 214 | 0.0 | 3.0 | 0.01 | 0.23 | 0.22 | 84 | 1009.1 |
| 20260507143852 | 57 | 83 | 0.0 | 4.0 | 0.01 | 0.23 | 0.22 | 85 | 1009.5 |
| 20260507143349 | 57 | 57 | 1.0 | 4.0 | 0.01 | 0.23 | 0.22 | 85 | 1009.3 |
| 20260507142859 | 57 | 169 | 1.0 | 3.0 | 0.01 | 0.23 | 0.22 | 85 | 1009.3 |
| 20260507142358 | 57 | 40 | 1.0 | 3.0 | 0.01 | 0.23 | 0.22 | 85 | 1009.4 |
| 20260507141853 | 57 | 328 | 1.0 | 5.0 | 0.01 | 0.23 | 0.22 | 86 | 1009.6 |
| 20260507141412 | 58 | 5 | 2.0 | 5.0 | 0.01 | 0.23 | 0.22 | 87 | 1009.3 |
| 20260507140846 | 58 | 99 | 0.0 | 1.0 | 0.01 | 0.23 | 0.22 | 88 | 1009.2 |
| 20260507140336 | 58 | 99 | 0.0 | 3.0 | 0.01 | 0.23 | 0.22 | 88 | 1009.4 |
| 20260507135902 | 58 | 99 | 0.0 | 3.0 | 0.01 | 0.23 | 0.22 | 88 | 1009.3 |
| 20260507135340 | 58 | 165 | 0.0 | 2.0 | 0.01 | 0.23 | 0.22 | 88 | 1009.3 |
| 20260507134844 | 58 | 175 | 1.0 | 2.0 | 0.00 | 0.22 | 0.21 | 88 | 1009.1 |
| 20260507134346 | 58 | 175 | 0.0 | 2.0 | 0.00 | 0.22 | 0.21 | 88 | 1009.0 |
| 20260507133844 | 58 | 175 | 0.0 | 1.0 | 0.00 | 0.22 | 0.21 | 88 | 1009.1 |
| 20260507133359 | 58 | 175 | 0.0 | 1.0 | 0.01 | 0.22 | 0.21 | 88 | 1009.1 |
| 20260507132859 | 58 | 142 | 0.0 | 1.0 | 0.01 | 0.22 | 0.21 | 88 | 1009.0 |
| 20260507132348 | 58 | 142 | 0.0 | 2.0 | 0.01 | 0.22 | 0.21 | 88 | 1009.0 |
| 20260507131907 | 58 | 141 | 0.0 | 2.0 | 0.01 | 0.22 | 0.21 | 88 | 1009.2 |
| 20260507131341 | 58 | 142 | 1.0 | 6.0 | 0.02 | 0.22 | 0.21 | 88 | 1009.2 |
| 20260507130834 | 58 | 180 | 0.0 | 6.0 | 0.02 | 0.22 | 0.21 | 88 | 1009.0 |
| 20260507130334 | 58 | 205 | 0.0 | 3.0 | 0.02 | 0.22 | 0.21 | 88 | 1009.1 |
| 20260507125841 | 58 | 205 | 1.0 | 3.0 | 0.02 | 0.22 | 0.21 | 87 | 1009.1 |
| 20260507125332 | 58 | 5 | 1.0 | 3.0 | 0.02 | 0.22 | 0.21 | 87 | 1008.8 |
| 20260507124837 | 58 | 190 | 0.0 | 3.0 | 0.02 | 0.22 | 0.21 | 87 | 1008.8 |
| 20260507124344 | 58 | 184 | 1.0 | 3.0 | 0.03 | 0.22 | 0.21 | 87 | 1008.7 |
| 20260507123858 | 58 | 233 | 0.0 | 3.0 | 0.04 | 0.22 | 0.21 | 87 | 1008.9 |
| 20260507123403 | 58 | 236 | 0.0 | 4.0 | 0.03 | 0.21 | 0.20 | 86 | 1009.2 |
| 20260507122828 | 58 | 74 | 0.0 | 4.0 | 0.04 | 0.21 | 0.20 | 86 | 1009.1 |
| 20260507122348 | 58 | 116 | 0.0 | 3.0 | 0.04 | 0.21 | 0.20 | 86 | 1009.1 |
| 20260507121858 | 58 | 171 | 1.0 | 5.0 | 0.05 | 0.21 | 0.20 | 86 | 1008.8 |
| 20260507121333 | 59 | 192 | 1.0 | 3.0 | 0.04 | 0.20 | 0.19 | 86 | 1008.8 |
| 20260507120910 | 59 | 204 | 1.0 | 3.0 | 0.06 | 0.20 | 0.19 | 87 | 1008.6 |
| 20260507120339 | 59 | 325 | 1.0 | 3.0 | 0.06 | 0.20 | 0.19 | 88 | 1008.8 |
| 20260507115906 | 59 | 80 | 0.0 | 4.0 | 0.06 | 0.20 | 0.19 | 88 | 1008.9 |
| 20260507115400 | 59 | 287 | 0.0 | 4.0 | 0.06 | 0.20 | 0.19 | 87 | 1008.6 |
| 20260507114852 | 60 | 91 | 1.0 | 2.0 | 0.07 | 0.20 | 0.19 | 88 | 1008.5 |
| 20260507114352 | 60 | 51 | 0.0 | 2.0 | 0.06 | 0.19 | 0.18 | 87 | 1008.5 |
| 20260507113832 | 60 | 199 | 0.0 | 3.0 | 0.05 | 0.18 | 0.17 | 87 | 1008.7 |
| 20260507113335 | 60 | 197 | 1.0 | 3.0 | 0.06 | 0.18 | 0.17 | 87 | 1008.6 |
| 20260507112842 | 60 | 251 | 0.0 | 3.0 | 0.05 | 0.17 | 0.16 | 87 | 1008.8 |
| 20260507112350 | 60 | 296 | 0.0 | 3.0 | 0.06 | 0.17 | 0.16 | 87 | 1008.6 |
| 20260507111857 | 60 | 119 | 0.0 | 1.0 | 0.05 | 0.16 | 0.15 | 87 | 1008.4 |
| 20260507111332 | 60 | 118 | 0.0 | 2.0 | 0.05 | 0.16 | 0.15 | 87 | 1008.4 |
| 20260507110836 | 60 | 120 | 0.0 | 2.0 | 0.04 | 0.14 | 0.13 | 87 | 1008.5 |
| 20260507110338 | 61 | 121 | 1.0 | 2.0 | 0.04 | 0.14 | 0.13 | 87 | 1008.3 |
| 20260507105845 | 61 | 132 | 1.0 | 2.0 | 0.04 | 0.14 | 0.13 | 87 | 1008.2 |
| 20260507105345 | 61 | 176 | 0.0 | 2.0 | 0.03 | 0.13 | 0.12 | 87 | 1008.2 |
| 20260507104848 | 61 | 122 | 1.0 | 2.0 | 0.04 | 0.13 | 0.12 | 87 | 1008.1 |
| 20260507104329 | 61 | 210 | 1.0 | 2.0 | 0.05 | 0.13 | 0.12 | 87 | 1008.0 |
| 20260507103837 | 61 | 196 | 1.0 | 3.0 | 0.05 | 0.13 | 0.12 | 87 | 1007.9 |
| 20260507103330 | 61 | 36 | 0.0 | 3.0 | 0.04 | 0.12 | 0.11 | 87 | 1007.8 |
| 20260507102829 | 62 | 343 | 0.0 | 2.0 | 0.04 | 0.12 | 0.11 | 87 | 1007.8 |
| 20260507102405 | 62 | 284 | 0.0 | 1.0 | 0.03 | 0.11 | 0.10 | 87 | 1007.8 |
| 20260507101843 | 62 | 269 | 1.0 | 3.0 | 0.04 | 0.11 | 0.10 | 86 | 1007.8 |
| 20260507101325 | 62 | 266 | 0.0 | 4.0 | 0.04 | 0.11 | 0.10 | 86 | 1008.0 |
| 20260507100834 | 62 | 5 | 0.0 | 3.0 | 0.04 | 0.10 | 0.09 | 86 | 1007.9 |
| 20260507100339 | 63 | 232 | 1.0 | 3.0 | 0.04 | 0.10 | 0.09 | 85 | 1008.0 |
| 20260507095836 | 64 | 82 | 1.0 | 3.0 | 0.05 | 0.10 | 0.09 | 85 | 1007.7 |
| 20260507095332 | 64 | 278 | 1.0 | 4.0 | 0.06 | 0.10 | 0.09 | 85 | 1007.9 |
| 20260507094838 | 65 | 41 | 1.0 | 5.0 | 0.05 | 0.09 | 0.08 | 85 | 1007.7 |
| 20260507094331 | 66 | 57 | 1.0 | 5.0 | 0.05 | 0.08 | 0.07 | 86 | 1007.6 |
| 20260507093834 | 67 | 330 | 1.0 | 4.0 | 0.05 | 0.08 | 0.07 | 87 | 1007.7 |
| 20260507093344 | 67 | 71 | 0.0 | 0.0 | 0.05 | 0.08 | 0.07 | 89 | 1007.4 |
| 20260507092856 | 67 | 71 | 0.0 | 0.0 | 0.05 | 0.08 | 0.07 | 88 | 1007.3 |
| 20260507092334 | 67 | 71 | 0.0 | 0.0 | 0.05 | 0.08 | 0.07 | 88 | 1007.2 |
| 20260507091837 | 67 | 71 | 0.0 | 0.0 | 0.04 | 0.07 | 0.06 | 88 | 1007.1 |
| 20260507091346 | 67 | 71 | 0.0 | 0.0 | 0.04 | 0.07 | 0.06 | 88 | 1007.0 |
| 20260507090835 | 67 | 71 | 0.0 | 0.0 | 0.03 | 0.06 | 0.05 | 88 | 1007.0 |
| 20260507090348 | 67 | 71 | 0.0 | 0.0 | 0.03 | 0.06 | 0.05 | 88 | 1006.9 |
| 20260507085847 | 67 | 71 | 0.0 | 0.0 | 0.02 | 0.05 | 0.04 | 88 | 1006.8 |
| 20260507085338 | 67 | 71 | 0.0 | 0.0 | 0.01 | 0.04 | 0.03 | 88 | 1006.7 |
| 20260507084842 | 67 | 71 | 0.0 | 0.0 | 0.00 | 0.03 | 0.02 | 88 | 1006.7 |
| 20260507084345 | 67 | 71 | 0.0 | 0.0 | 0.00 | 0.03 | 0.02 | 88 | 1006.7 |
| 20260507083844 | 67 | 71 | 0.0 | 0.0 | 0.00 | 0.03 | 0.02 | 88 | 1006.8 |
| 20260507083344 | 67 | 71 | 0.0 | 0.0 | 0.00 | 0.03 | 0.02 | 88 | 1006.8 |
| 20260507082833 | 67 | 71 | 0.0 | 0.0 | 0.00 | 0.03 | 0.02 | 88 | 1006.9 |
| 20260507082351 | 67 | 71 | 0.0 | 0.0 | 0.00 | 0.03 | 0.02 | 88 | 1006.8 |
| 20260507081837 | 67 | 71 | 0.0 | 1.0 | 0.00 | 0.03 | 0.02 | 88 | 1006.8 |
| 20260507081349 | 68 | 71 | 0.0 | 1.0 | 0.00 | 0.03 | 0.02 | 88 | 1006.8 |
| 20260507080850 | 68 | 71 | 0.0 | 1.0 | 0.00 | 0.03 | 0.02 | 88 | 1006.6 |
| 20260507080357 | 68 | 71 | 0.0 | 1.0 | 0.00 | 0.03 | 0.02 | 87 | 1006.5 |
| 20260507075858 | 68 | 71 | 0.0 | 1.0 | 0.00 | 0.03 | 0.02 | 87 | 1006.5 |
| 20260507075338 | 68 | 71 | 0.0 | 2.0 | 0.00 | 0.03 | 0.02 | 87 | 1006.5 |
| 20260507074921 | 68 | 71 | 0.0 | 2.0 | 0.00 | 0.03 | 0.02 | 87 | 1006.5 |
| 20260507074329 | 68 | 71 | 0.0 | 2.0 | 0.00 | 0.03 | 0.02 | 87 | 1006.7 |
| 20260507073858 | 68 | 71 | 0.0 | 2.0 | 0.00 | 0.03 | 0.02 | 87 | 1006.6 |
| 20260507073356 | 67 | 71 | 0.0 | 2.0 | 0.00 | 0.03 | 0.02 | 87 | 1006.8 |
| 20260507072834 | 68 | 71 | 0.0 | 2.0 | 0.00 | 0.03 | 0.02 | 87 | 1006.9 |
| 20260507072349 | 68 | 71 | 1.0 | 3.0 | 0.00 | 0.03 | 0.02 | 87 | 1006.8 |
| 20260507071843 | 68 | 337 | 1.0 | 3.0 | 0.00 | 0.03 | 0.02 | 87 | 1006.8 |
| 20260507071404 | 68 | 62 | 1.0 | 3.0 | 0.01 | 0.03 | 0.02 | 87 | 1006.9 |
| 20260507070834 | 68 | 298 | 1.0 | 3.0 | 0.01 | 0.03 | 0.02 | 87 | 1006.9 |
| 20260507070344 | 68 | 183 | 0.0 | 3.0 | 0.01 | 0.03 | 0.02 | 87 | 1006.7 |
| 20260507065841 | 68 | 161 | 1.0 | 3.0 | 0.01 | 0.03 | 0.02 | 87 | 1006.7 |
| 20260507065330 | 68 | 49 | 0.0 | 3.0 | 0.02 | 0.03 | 0.02 | 87 | 1006.6 |
| 20260507064840 | 68 | 49 | 1.0 | 3.0 | 0.02 | 0.03 | 0.02 | 87 | 1006.7 |
| 20260507064344 | 68 | 25 | 0.0 | 2.0 | 0.02 | 0.03 | 0.02 | 86 | 1006.5 |
| 20260507063915 | 68 | 25 | 1.0 | 4.0 | 0.02 | 0.03 | 0.02 | 86 | 1006.5 |
| 20260507063358 | 68 | 27 | 1.0 | 4.0 | 0.02 | 0.03 | 0.02 | 86 | 1006.3 |
| 20260507062846 | 68 | 87 | 0.0 | 2.0 | 0.02 | 0.03 | 0.02 | 85 | 1006.2 |
| 20260507062405 | 68 | 87 | 0.0 | 2.0 | 0.02 | 0.03 | 0.02 | 85 | 1006.2 |
| 20260507061838 | 68 | 74 | 0.0 | 2.0 | 0.02 | 0.03 | 0.02 | 85 | 1006.2 |
| 20260507061335 | 69 | 74 | 0.0 | 2.0 | 0.01 | 0.02 | 0.01 | 84 | 1006.5 |
| 20260507060847 | 69 | 84 | 0.0 | 1.0 | 0.01 | 0.02 | 0.01 | 83 | 1006.7 |
| 20260507060344 | 69 | 84 | 0.0 | 2.0 | 0.01 | 0.02 | 0.01 | 83 | 1007.0 |
| 20260507055903 | 69 | 71 | 0.0 | 1.0 | 0.01 | 0.02 | 0.01 | 82 | 1007.2 |
| 20260507055331 | 70 | 71 | 0.0 | 2.0 | 0.00 | 0.01 | 0.00 | 81 | 1007.4 |
| 20260507054833 | 70 | 88 | 1.0 | 2.0 | 0.00 | 0.01 | 0.00 | 80 | 1007.2 |
| 20260507054333 | 70 | 69 | 0.0 | 2.0 | 0.00 | 0.01 | 0.00 | 79 | 1007.7 |
| 20260507053841 | 70 | 69 | 0.0 | 2.0 | 0.00 | 0.01 | 0.00 | 79 | 1007.7 |
| 20260507053328 | 70 | 69 | 1.0 | 3.0 | 0.00 | 0.01 | 0.00 | 78 | 1007.8 |
| 20260507052841 | 71 | 28 | 0.0 | 3.0 | 0.00 | 0.01 | 0.00 | 78 | 1007.8 |
| 20260507052354 | 71 | 338 | 1.0 | 3.0 | 0.00 | 0.01 | 0.00 | 77 | 1007.9 |
| 20260507051854 | 71 | 84 | 0.0 | 2.0 | 0.00 | 0.01 | 0.00 | 77 | 1008.0 |
| 20260507051349 | 71 | 82 | 0.0 | 2.0 | 0.00 | 0.01 | 0.00 | 77 | 1007.9 |
| 20260507050857 | 71 | 82 | 0.0 | 2.0 | 0.00 | 0.01 | 0.00 | 77 | 1007.9 |
| 20260507050334 | 71 | 128 | 0.0 | 2.0 | 0.00 | 0.01 | 0.00 | 77 | 1007.8 |
| 20260507045846 | 70 | 126 | 0.0 | 2.0 | 0.00 | 0.01 | 0.00 | 76 | 1008.0 |
| 20260507045400 | 70 | 194 | 0.0 | 2.0 | 0.00 | 0.01 | 0.00 | 77 | 1008.0 |
| 20260507044830 | 70 | 118 | 0.0 | 1.0 | 0.00 | 0.01 | 0.00 | 76 | 1008.1 |
| 20260507044335 | 70 | 119 | 0.0 | 1.0 | 0.00 | 0.01 | 0.00 | 76 | 1008.1 |
| 20260507043849 | 70 | 119 | 0.0 | 0.0 | 0.00 | 0.01 | 0.00 | 76 | 1008.0 |
| 20260507043342 | 70 | 119 | 0.0 | 0.0 | 0.00 | 0.01 | 0.00 | 76 | 1007.9 |
| 20260507042841 | 70 | 119 | 0.0 | 0.0 | 0.00 | 0.01 | 0.00 | 75 | 1007.8 |
| 20260507042334 | 70 | 119 | 0.0 | 0.0 | 0.00 | 0.01 | 0.00 | 75 | 1007.6 |
| 20260507041841 | 70 | 119 | 0.0 | 0.0 | 0.00 | 0.01 | 0.00 | 75 | 1007.5 |
| 20260507041410 | 70 | 119 | 0.0 | 2.0 | 0.00 | 0.01 | 0.00 | 75 | 1007.6 |
| 20260507040854 | 70 | 119 | 0.0 | 2.0 | 0.00 | 0.01 | 0.00 | 75 | 1007.7 |
| 20260507040353 | 70 | 70 | 0.0 | 1.0 | 0.00 | 0.01 | 0.00 | 75 | 1007.7 |
| 20260507035836 | 70 | 69 | 0.0 | 1.0 | 0.00 | 0.01 | 0.01 | 75 | 1007.8 |
| 20260507035336 | 70 | 70 | 0.0 | 1.0 | 0.00 | 0.01 | 0.01 | 75 | 1007.8 |
| 20260507034837 | 70 | 70 | 0.0 | 1.0 | 0.00 | 0.01 | 0.01 | 75 | 1007.8 |
| 20260507034359 | 70 | 70 | 0.0 | 1.0 | 0.00 | 0.01 | 0.01 | 75 | 1007.8 |
| 20260507033843 | 70 | 70 | 0.0 | 2.0 | 0.00 | 0.01 | 0.01 | 75 | 1007.9 |
| 20260507033331 | 70 | 70 | 0.0 | 2.0 | 0.00 | 0.01 | 0.01 | 75 | 1007.7 |
| 20260507032830 | 70 | 24 | 0.0 | 1.0 | 0.00 | 0.01 | 0.01 | 75 | 1007.7 |
| 20260507032328 | 70 | 24 | 0.0 | 1.0 | 0.00 | 0.01 | 0.01 | 75 | 1007.6 |
| 20260507031838 | 70 | 21 | 0.0 | 0.0 | 0.00 | 0.01 | 0.01 | 75 | 1007.5 |
| 20260507031351 | 70 | 22 | 0.0 | 2.0 | 0.00 | 0.01 | 0.01 | 75 | 1007.6 |
| 20260507030859 | 70 | 21 | 0.0 | 3.0 | 0.00 | 0.01 | 0.01 | 75 | 1007.6 |
| 20260507030342 | 70 | 21 | 0.0 | 3.0 | 0.00 | 0.01 | 0.01 | 76 | 1007.6 |
| 20260507025904 | 69 | 44 | 0.0 | 1.0 | 0.00 | 0.01 | 0.01 | 76 | 1007.6 |
| 20260507025344 | 69 | 42 | 0.0 | 1.0 | 0.00 | 0.01 | 0.01 | 77 | 1007.5 |
| 20260507024857 | 69 | 42 | 0.0 | 0.0 | 0.00 | 0.01 | 0.01 | 77 | 1007.5 |
| 20260507024337 | 69 | 42 | 0.0 | 2.0 | 0.00 | 0.01 | 0.01 | 77 | 1007.6 |
| 20260507023837 | 68 | 42 | 0.0 | 2.0 | 0.00 | 0.01 | 0.01 | 77 | 1007.8 |
| 20260507023340 | 68 | 79 | 0.0 | 1.0 | 0.00 | 0.01 | 0.01 | 78 | 1007.9 |
| 20260507022900 | 68 | 79 | 0.0 | 2.0 | 0.00 | 0.01 | 0.01 | 78 | 1007.9 |
| 20260507022340 | 68 | 79 | 0.0 | 2.0 | 0.00 | 0.01 | 0.01 | 78 | 1008.0 |
| 20260507021855 | 68 | 79 | 0.0 | 0.0 | 0.00 | 0.01 | 0.01 | 77 | 1007.9 |
| 20260507021400 | 68 | 79 | 0.0 | 0.0 | 0.00 | 0.01 | 0.01 | 77 | 1008.0 |
| 20260507020859 | 68 | 79 | 0.0 | 0.0 | 0.00 | 0.01 | 0.01 | 77 | 1007.9 |
| 20260507020341 | 68 | 79 | 0.0 | 0.0 | 0.00 | 0.01 | 0.01 | 76 | 1008.0 |
| 20260507015843 | 69 | 79 | 0.0 | 0.0 | 0.00 | 0.01 | 0.01 | 76 | 1008.0 |
| 20260507015405 | 69 | 79 | 0.0 | 0.0 | 0.00 | 0.01 | 0.01 | 75 | 1008.0 |
| 20260507014858 | 69 | 79 | 0.0 | 0.0 | 0.00 | 0.01 | 0.01 | 75 | 1007.9 |
| 20260507014334 | 69 | 79 | 0.0 | 0.0 | 0.00 | 0.01 | 0.01 | 75 | 1008.0 |
| 20260507013828 | 69 | 79 | 0.0 | 0.0 | 0.00 | 0.01 | 0.01 | 74 | 1008.0 |
| 20260507013350 | 70 | 79 | 0.0 | 0.0 | 0.00 | 0.01 | 0.01 | 74 | 1008.1 |
| 20260507012853 | 70 | 79 | 0.0 | 0.0 | 0.00 | 0.01 | 0.01 | 73 | 1008.1 |